Wind_Speed
18 18 17 17 16 16 16 17 17 18 18 17 16 15 14 14 14 13 13 13 13 13 14 14 14 13 13 12 12 11 11 10 10 9 9 9 9 8 9 9 9 9 9 9 10 10 10 10 10 11 11 11 11 11 11 11 11 11 11 11 12 14 14 15 15 14 14 15 16 16 17 17 17 18 19 20 21 21 21 22 22 22 22 22 21
18 18 18 18 18 17 17 17 18 19 19 18 18 16 15 15 15 14 14 14 14 14 15 15 15 14 13 13 12 12 12 11 10 10 10 9 9 9 9 9 9 9 9 9 10 10 10 10 11 11 11 11 12 12 12 12 12 12 12 13 13 15 16 16 15 15 14 15 16 17 18 18 18 19 19 19 20 20 21 22 22 22 23 23 22
17 19 19 19 19 19 19 19 19 19 19 19 19 18 17 16 16 15 15 15 15 15 15 15 15 15 14 14 14 13 13 12 11 11 10 10 9 9 9 9 9 9 8 9 9 9 9 10 10 11 11 11 12 12 13 13 13 13 13 14 14 15 16 16 16 16 15 14 15 16 17 17 18 19 19 20 20 20 21 21 22 23 24 24 24
18 19 19 19 20 20 20 20 20 20 19 20 20 20 19 18 17 17 16 16 16 16 16 16 15 15 15 15 14 14 14 13 12 12 11 10 10 10 9 9 9 9 9 9 9 9 9 9 10 11 10 10 11 12 13 13 13 14 14 14 15 15 15 16 16 17 16 15 15 15 16 16 17 18 19 19 19 20 21 22 23 23 24 25 25
19 20 21 21 21 21 21 21 21 21 21 21 21 22 22 21 20 19 18 17 17 16 16 16 16 15 15 15 15 15 14 14 13 13 12 12 11 11 11 11 10 10 10 10 10 9 9 9 10 10 10 10 11 12 12 13 14 14 14 14 15 15 15 16 17 17 18 17 16 16 16 16 16 17 18 19 19 20 21 22 23 24 25 25 25
22 22 22 23 23 23 22 22 22 22 22 23 22 22 23 23 22 22 21 20 19 18 18 17 16 17 16 16 16 16 15 15 14 14 13 13 13 13 13 12 12 12 12 12 12 11 11 10 11 11 11 11 11 12 13 14 14 14 14 14 15 15 16 16 17 18 18 18 18 17 17 17 17 17 18 19 20 20 21 22 22 23 25 25 25
25 24 24 24 24 24 24 23 23 23 23 23 23 23 23 23 23 23 23 22 21 21 20 19 18 18 18 18 18 17 17 16 16 15 15 14 14 14 14 14 14 14 14 14 14 13 13 13 13 12 12 12 13 14 14 15 15 15 15 16 16 16 17 17 18 19 19 19 19 18 18 18 18 18 18 19 20 21 23 23 23 23 24 25 24
24 24 24 24 24 24 24 24 24 24 23 23 23 22 22 22 23 23 24 24 24 23 22 21 20 20 20 20 20 19 19 18 17 17 17 16 16 15 15 15 15 15 16 16 16 16 16 15 15 14 14 14 15 15 16 16 17 17 17 17 18 18 18 19 19 20 20 20 20 20 20 20 20 20 20 20 21 22 24 25 25 24 24 23 23
24 25 26 27 26 25 25 25 25 25 24 24 23 23 23 23 22 22 23 24 24 25 24 24 23 22 21 21 21 21 21 20 19 19 19 18 18 17 17 17 17 17 17 18 18 18 17 17 17 16 16 16 16 16 17 17 18 18 18 19 20 20 20 20 21 21 21 21 21 21 21 21 21 21 21 21 22 23 24 26 26 25 25 24 22
27 27 27 27 27 27 26 26 26 25 25 24 24 24 23 23 23 23 23 23 23 24 25 25 25 24 23 22 22 22 22 21 21 22 21 21 21 20 19 19 19 19 19 19 19 19 19 19 18 18 18 18 18 18 18 19 20 20 19 20 21 22 22 22 22 22 22 23 22 23 23 22 21 22 22 22 23 24 25 26 27 26 27 26 23
27 26 24 24 25 26 27 27 27 26 25 25 25 25 25 25 24 24 23 23 23 24 24 25 26 26 25 24 24 23 23 23 23 24 24 24 23 23 22 21 21 21 20 20 20 20 21 21 20 20 20 20 20 20 21 21 22 22 22 22 22 23 23 23 23 23 24 24 24 24 24 23 23 23 24 24 24 25 25 27 28 28 28 28 26
26 25 24 23 23 25 27 28 29 28 27 27 27 27 26 26 26 25 24 24 25 25 25 25 25 25 24 24 24 25 25 25 25 25 26 26 26 25 24 24 23 23 22 22 22 22 22 22 22 22 22 22 22 22 23 23 24 24 24 24 24 24 25 25 25 25 25 26 26 25 26 26 25 24 25 26 26 26 26 27 28 29 29 29 29
25 24 23 23 23 24 26 27 28 28 28 29 30 29 28 27 26 25 25 26 26 26 27 27 27 26 25 24 25 26 26 27 26 27 27 27 28 27 26 26 25 24 23 23 23 23 23 23 23 23 23 23 23 23 24 24 24 25 25 25 25 25 26 26 26 26 27 27 27 26 26 26 27 25 25 27 27 27 27 27 27 27 28 28 28
20 20 19 20 21 21 22 24 25 27 27 28 30 30 30 29 27 26 26 26 26 27 27 28 29 29 27 26 26 26 26 26 26 27 27 28 28 28 28 27 26 24 23 22 22 23 23 24 24 24 24 24 24 24 24 25 25 25 25 26 26 26 26 27 27 27 28 28 29 28 27 27 28 28 27 28 29 29 29 28 27 26 26 27 27
14 15 15 16 17 17 18 20 21 22 23 24 26 28 29 29 28 27 27 26 26 26 27 29 30 31 30 28 28 27 26 25 25 25 26 27 28 28 28 27 26 25 24 23 22 22 23 24 24 24 24 24 24 24 24 25 25 25 26 26 26 26 26 26 27 27 27 28 29 30 29 29 29 29 29 29 30 31 31 30 29 28 28 28 28
12 14 12 12 13 13 15 16 17 18 19 20 22 24 26 27 27 27 26 26 25 25 26 28 30 31 30 29 29 27 26 26 26 26 26 27 28 28 28 28 27 26 26 25 24 24 24 24 24 24 24 23 24 24 24 24 25 25 25 25 25 26 25 25 26 27 28 29 30 31 31 30 30 29 29 29 30 30 32 32 30 30 31 31 30
13 14 13 12 12 12 13 15 16 17 17 18 20 21 21 22 22 23 23 24 25 26 28 28 29 29 29 28 28 27 26 25 24 25 26 27 28 29 29 28 28 28 28 28 27 26 25 25 25 25 25 24 24 24 24 25 25 25 26 26 26 26 26 26 27 28 29 31 32 32 32 31 30 30 29 28 29 30 32 32 31 31 33 33 32
14 15 14 14 14 13 13 14 15 15 15 15 16 17 17 18 19 20 21 22 24 27 29 28 26 26 26 26 25 25 25 24 23 24 25 26 28 29 29 30 30 30 30 30 29 28 27 27 27 28 28 27 27 26 26 26 27 28 28 28 29 28 28 29 30 31 31 32 33 33 33 32 32 31 30 29 29 30 31 31 31 32 34 34 34
13 13 14 14 14 14 14 14 14 14 15 15 15 15 16 17 19 21 22 23 25 26 25 24 23 24 24 24 24 24 25 24 24 25 26 27 28 29 30 32 33 33 32 32 31 31 30 30 30 30 31 31 30 30 29 30 30 30 31 32 32 32 32 33 34 34 34 34 34 35 35 34 34 33 32 31 30 31 31 31 32 33 34 35 35
10 11 12 13 13 13 13 13 14 15 16 16 16 16 16 17 19 21 22 23 24 23 22 21 21 23 22 21 20 21 23 24 25 26 27 28 30 31 31 32 33 33 32 32 32 32 33 34 34 33 33 33 33 33 33 33 33 33 33 34 34 35 35 36 37 37 36 36 35 36 36 35 35 35 34 33 32 31 31 31 32 33 34 35 36
11 11 12 12 13 13 13 13 14 15 15 15 15 15 15 15 16 17 17 18 19 19 18 19 20 21 21 21 20 21 21 22 22 23 24 26 29 31 32 33 33 33 33 32 33 33 34 35 36 35 34 34 35 35 35 35 35 35 34 35 35 36 37 38 38 39 38 38 37 36 35 35 34 33 32 31 30 30 31 31 31 32 33 35 35
11 11 11 12 12 12 12 12 13 13 13 13 13 12 12 12 12 11 11 11 12 12 12 13 14 16 18 20 22 22 23 23 23 23 23 24 26 29 32 32 33 34 33 33 34 34 34 35 35 34 34 34 34 34 35 36 36 36 36 36 37 37 38 38 39 40 40 39 38 37 36 35 34 33 31 31 30 29 30 31 31 32 33 34 35
9 9 10 10 10 10 10 11 11 11 12 12 11 11 11 10 10 9 9 9 10 10 10 11 11 11 12 14 16 17 18 19 20 20 20 21 23 25 27 28 30 32 33 34 35 35 35 35 34 33 33 33 33 33 33 34 35 36 37 37 38 38 38 37 38 38 38 39 39 38 37 37 36 36 34 33 33 32 32 33 33 34 35 35 36
9 9 9 9 10 10 11 11 12 12 12 12 12 12 12 12 12 12 12 12 13 13 13 14 14 14 14 14 14 14 15 16 16 16 16 17 17 19 20 21 24 27 30 33 33 33 34 34 34 34 33 33 32 32 32 32 33 33 34 34 35 35 35 35 35 36 36 37 38 38 38 38 37 37 36 35 35 35 35 35 35 35 36 36 36
12 12 12 12 12 13 13 14 14 15 16 16 16 16 15 16 16 16 17 17 17 18 18 18 19 19 19 19 19 19 19 19 19 20 20 20 20 20 19 20 20 21 23 25 26 27 28 29 31 32 33 33 33 33 33 32 31 31 31 31 31 32 32 32 33 33 34 35 36 36 36 36 36 36 35 34 34 34 34 35 34 34 34 35 34
17 17 16 16 16 16 16 16 17 18 18 19 19 19 19 20 21 21 21 22 22 22 23 23 23 23 23 23 24 24 24 25 25 25 25 25 25 25 25 24 24 24 24 23 23 23 24 24 26 27 28 29 30 31 31 31 31 31 30 30 31 31 32 32 33 34 34 34 34 34 34 34 34 34 34 33 33 33 33 33 34 34 34 34 34
20 21 21 21 21 20 20 20 20 20 21 21 22 22 23 23 24 25 26 26 26 26 26 27 27 27 27 27 27 28 28 29 29 30 30 30 29 29 29 28 28 27 27 27 27 27 26 26 26 26 26 27 27 28 28 29 30 30 31 31 32 32 34 35 35 35 35 35 34 34 34 33 33 33 33 32 32 32 33 33 35 35 34 34 34
20 21 22 23 24 24 24 24 24 24 24 24 25 25 26 26 27 28 29 29 29 30 30 30 30 31 31 31 31 31 32 32 32 32 32 31 31 30 30 30 30 30 30 29 29 30 30 29 29 29 29 28 28 28 28 28 28 29 29 30 31 32 33 34 34 34 34 34 34 34 34 34 33 33 34 33 33 33 33 34 35 36 35 35 35
18 19 20 22 23 25 25 26 26 27 27 27 27 27 27 28 29 30 30 31 31 31 31 31 32 32 33 33 33 33 33 32 32 32 32 31 30 30 30 30 30 30 30 31 31 31 31 31 31 31 31 31 31 30 30 30 30 30 30 30 30 31 31 32 31 31 32 32 33 33 33 34 34 34 35 35 36 36 35 35 35 36 36 36 36
18 18 19 20 21 22 23 24 25 26 27 27 27 27 27 27 28 29 30 31 31 31 32 31 31 31 32 32 32 32 32 32 31 31 31 30 29 29 29 28 28 29 29 29 30 31 31 31 31 31 31 31 31 31 32 32 32 32 32 32 32 33 33 33 33 33 33 33 32 32 33 33 33 34 35 36 36 37 36 36 36 36 37 37 37
20 20 20 20 20 21 22 22 23 24 24 25 26 26 26 26 26 27 28 30 30 31 31 31 31 30 30 30 30 29 30 30 30 30 29 29 28 28 28 27 27 27 27 27 27 28 29 30 31 31 31 31 31 31 31 32 32 32 32 33 34 34 35 35 35 35 36 35 35 34 34 34 34 34 34 35 35 35 35 35 35 36 37 37 38
21 21 21 21 21 21 21 21 22 22 23 23 24 24 25 25 25 25 26 27 28 29 29 30 30 30 30 29 29 28 28 28 28 28 28 28 27 27 27 26 26 26 26 26 26 25 26 26 27 28 29 30 30 30 30 30 30 31 31 31 32 33 33 34 35 35 36 36 36 36 36 36 36 35 35 35 35 35 34 35 35 36 37 37 38
23 22 22 22 22 21 21 21 21 21 22 22 22 22 22 23 23 24 24 25 26 27 27 28 28 29 29 29 28 28 28 28 28 27 27 27 27 26 26 25 25 24 24 24 23 23 23 23 23 24 25 26 27 27 28 29 29 29 29 30 30 30 31 31 32 33 34 34 35 36 36 37 37 37 37 36 36 36 36 35 35 36 37 37 38
24 23 23 22 22 22 22 22 21 21 21 21 21 21 21 21 21 22 22 23 24 25 26 26 27 27 27 27 27 27 27 27 27 27 27 27 26 25 24 24 23 22 22 22 22 22 22 22 23 23 24 24 25 26 26 27 28 28 29 29 30 30 30 31 31 32 32 33 34 34 35 36 36 37 37 37 37 37 37 37 37 36 37 37 38
25 25 24 23 23 22 22 22 22 22 22 22 22 21 21 21 21 21 21 22 23 24 25 26 26 26 27 26 26 26 26 26 26 26 26 26 25 24 24 23 23 22 22 22 23 23 23 24 24 25 25 26 26 27 28 28 29 29 30 30 31 32 32 33 34 34 34 34 35 35 36 36 36 37 37 37 37 38 38 38 38 38 38 38 38
26 26 26 26 25 25 24 24 23 23 23 23 23 23 23 23 23 22 22 22 22 22 23 24 25 26 26 26 26 25 25 25 25 25 25 25 25 24 24 24 24 24 24 24 24 25 25 26 26 27 27 28 28 29 30 30 31 31 32 32 32 33 34 34 35 36 36 37 37 37 37 38 38 38 38 38 38 38 38 39 39 39 39 39 40
27 27 28 28 28 28 28 27 27 26 26 25 25 25 25 25 25 25 25 24 24 23 23 23 24 26 26 26 26 26 25 25 25 25 25 25 25 25 26 26 26 26 26 27 27 27 28 28 28 29 29 30 30 31 31 32 32 33 33 34 34 35 35 36 37 37 38 38 39 39 39 40 40 40 40 40 40 39 40 40 40 40 40 41 41
28 28 29 29 30 30 30 30 30 29 29 29 28 28 28 27 27 27 28 27 27 27 26 25 25 26 27 27 27 27 27 27 27 27 27 27 27 28 28 28 29 29 29 29 30 30 30 31 31 31 32 32 32 33 33 33 33 34 35 35 36 37 38 38 39 40 41 41 42 42 42 42 42 42 43 43 42 42 41 41 41 41 41 41 42
29 29 30 30 30 31 31 31 31 31 31 31 31 31 31 31 31 31 31 30 30 30 29 29 29 29 29 29 29 29 29 29 29 30 30 30 31 31 31 31 31 32 32 32 32 33 33 33 33 33 33 34 34 34 35 35 36 36 37 38 39 40 41 41 42 43 44 44 45 45 46 46 46 46 46 46 46 46 45 44 44 43 43 42 42
28 29 30 30 31 31 31 31 31 31 31 31 31 31 31 32 32 32 32 32 32 31 32 31 31 32 32 32 31 31 31 31 31 31 32 32 33 33 34 34 34 34 35 35 35 35 35 35 35 35 35 35 36 36 36 37 38 39 40 41 42 43 44 44 45 46 46 47 48 48 48 49 49 49 50 50 50 50 49 49 48 47 46 45 44
27 28 29 29 30 31 31 31 31 31 31 31 31 31 31 31 32 32 32 32 32 32 32 33 33 34 34 34 33 33 32 32 32 33 33 34 34 35 35 36 36 36 36 37 37 37 37 37 37 37 37 38 38 38 39 39 40 41 42 43 44 45 46 47 48 48 49 50 50 50 50 51 51 51 52 52 52 53 53 53 52 51 50 49 48
26 26 27 28 28 29 29 30 30 30 30 30 30 30 31 31 31 32 32 32 32 32 32 33 34 35 35 35 34 33 34 34 34 34 34 34 35 36 36 37 37 38 38 38 39 39 39 39 39 39 39 40 40 40 41 41 42 43 44 45 46 47 48 49 50 50 51 51 52 52 53 53 53 54 54 54 54 55 55 55 55 54 53 52 51
26 27 27 28 28 28 28 28 29 29 29 30 30 30 30 31 31 32 32 32 32 32 32 33 34 34 34 35 34 34 35 35 36 36 35 35 36 36 36 37 38 38 39 39 40 40 41 41 41 41 41 41 41 42 42 43 43 45 46 47 48 48 49 50 50 51 51 52 52 53 54 54 55 56 56 56 57 57 57 57 57 57 56 56 55
27 28 28 28 28 28 27 27 27 27 28 28 28 29 30 31 32 32 31 32 32 32 32 33 33 34 34 34 35 35 35 35 35 36 36 36 36 37 37 38 38 39 39 39 40 40 41 41 42 43 43 43 43 43 43 43 44 45 46 47 48 49 49 50 51 51 52 53 53 54 55 56 56 57 58 58 59 59 59 59 59 58 58 58 57
28 28 29 29 29 29 28 28 28 27 27 27 28 28 29 30 31 31 31 32 32 32 32 33 34 34 35 34 35 35 35 35 35 36 36 36 37 37 38 38 38 38 39 39 39 40 40 40 41 42 42 43 43 44 44 45 45 46 46 46 47 48 49 50 51 52 53 54 55 56 56 57 58 58 59 59 60 60 60 60 60 60 59 59 59
29 29 29 30 30 30 30 30 30 29 29 29 29 29 29 29 30 31 31 31 32 32 33 33 34 35 35 35 35 36 36 36 36 36 36 37 37 38 39 39 39 39 39 39 39 39 39 40 40 40 40 41 41 42 43 45 45 45 46 45 46 47 48 50 51 53 55 56 58 58 59 59 59 59 60 60 60 60 60 60 59 59 59 59 59
31 30 30 30 31 31 31 31 31 31 31 31 31 31 31 30 30 30 31 31 31 32 32 33 34 34 35 35 36 36 36 37 37 37 37 37 38 38 39 39 39 39 39 39 39 39 38 38 38 38 38 38 39 40 41 42 42 43 43 44 45 47 49 51 53 55 57 58 60 61 62 63 62 62 61 60 59 59 59 58 58 57 57 58 58
30 30 30 30 30 30 30 31 31 31 31 31 31 32 32 32 32 32 32 32 32 32 33 33 34 34 35 35 36 36 36 37 37 37 37 37 38 38 38 38 38 38 38 38 37 36 36 35 36 36 37 38 39 39 40 41 41 42 43 45 47 49 51 53 55 57 59 60 61 63 64 65 66 66 64 62 60 59 58 57 57 56 55 55 55
29 29 29 30 29 29 29 29 29 30 30 30 31 31 32 32 32 33 33 33 33 33 34 34 34 34 35 35 35 36 36 36 37 37 37 37 37 37 37 36 36 36 35 34 34 34 34 35 36 37 38 39 40 40 41 43 44 46 47 49 50 52 54 55 57 58 60 61 62 63 65 66 67 67 67 65 63 61 59 57 57 56 55 54 53
29 29 28 28 28 28 27 27 28 28 28 29 29 30 30 31 31 32 32 33 33 34 34 34 34 35 35 35 35 35 35 36 36 36 35 35 35 34 34 33 32 31 31 32 32 33 35 36 37 38 39 40 41 43 44 46 48 49 51 52 54 55 57 58 59 60 61 62 63 64 65 65 66 66 65 64 64 62 61 59 57 56 55 54 52
28 27 26 26 26 25 26 26 27 27 28 28 29 29 30 31 31 32 32 33 33 33 34 34 34 34 34 34 34 34 34 34 34 34 33 33 32 31 30 30 30 30 31 32 34 35 36 38 39 40 41 43 45 46 48 49 51 52 54 55 57 58 59 60 61 61 62 63 63 63 64 64 64 63 62 62 62 61 61 60 58 57 56 55 52
Wind_Direction
210 207 205 206 208 210 210 209 209 210 208 206 204 205 207 207 207 205 202 203 204 202 200 200 201 202 203 205 207 208 209 209 212 214 215 217 220 225 227 228 232 234 234 236 239 243 246 249 252 254 255 257 258 259 261 263 266 268 271 272 273 274 274 274 275 278 283 285 287 289 290 291 292 293 293 295 296 297 297 298 298 299 301 303 305
213 212 209 207 208 210 212 212 212 213 213 211 208 208 209 210 212 211 209 209 209 209 210 208 207 207 208 210 213 214 215 214 214 214 215 216 218 221 223 225 229 231 232 236 240 245 249 253 257 259 260 261 263 264 265 266 268 270 272 273 275 276 275 276 277 278 281 285 288 292 294 296 297 297 298 299 300 301 302 302 302 304 306 307 309
215 215 214 211 210 211 214 215 215 215 216 215 213 212 213 213 214 214 215 215 214 214 216 216 214 213 213 215 216 217 219 219 219 219 219 218 218 220 223 225 231 231 232 236 241 246 249 253 257 260 263 264 265 267 268 268 270 271 273 275 276 277 277 277 279 279 279 282 287 290 293 295 297 298 300 301 303 304 305 306 308 311 312 313 315
217 217 216 215 213 213 215 216 218 218 217 217 216 216 216 217 217 217 218 219 218 219 221 222 222 221 219 219 219 219 220 221 222 224 225 225 225 226 226 228 233 234 235 237 239 242 247 252 258 262 265 267 268 270 271 272 272 272 274 276 277 279 281 282 283 283 282 282 285 289 291 294 297 299 300 302 305 308 309 310 312 314 315 316 318
221 218 216 216 215 215 215 216 218 219 219 219 219 218 219 220 220 221 221 222 222 223 226 227 227 227 227 226 224 223 223 222 223 225 228 232 233 234 233 232 235 237 239 241 240 240 242 247 257 263 267 268 268 269 269 270 271 272 274 276 277 279 282 285 286 287 288 287 288 290 292 293 296 299 300 302 305 307 307 308 310 311 312 313 316
221 220 219 218 217 217 217 217 218 218 219 221 221 221 222 222 223 224 224 225 224 225 227 229 231 231 232 231 230 229 229 227 226 226 229 234 239 242 242 240 239 239 240 243 244 244 243 245 252 258 263 265 266 267 269 268 269 271 272 275 277 280 282 284 286 288 289 291 291 291 291 292 294 297 299 301 303 303 302 302 304 305 307 309 313
221 222 223 222 222 221 221 221 221 220 220 222 223 224 225 225 226 227 227 228 229 229 229 229 231 232 234 235 235 236 235 233 231 231 232 235 238 242 245 245 243 242 241 243 245 246 246 246 249 253 256 258 259 262 265 267 269 270 272 273 275 278 281 283 285 287 288 289 290 290 290 291 293 295 297 299 301 301 300 300 299 300 303 307 312
226 226 228 229 227 226 226 226 226 225 223 222 223 226 227 227 229 230 231 232 232 233 233 233 234 234 235 237 238 240 240 239 237 236 236 238 239 242 243 245 245 244 243 244 246 247 249 249 250 251 253 254 256 258 261 264 267 268 270 272 274 275 278 280 282 285 287 288 289 290 291 291 294 296 298 299 300 299 299 300 301 302 304 307 313
230 229 231 233 232 230 230 230 230 230 228 226 225 226 227 228 230 231 233 235 236 236 236 237 237 237 238 239 240 242 243 243 243 242 241 241 242 243 244 245 246 245 245 246 247 249 250 251 250 250 251 252 254 257 259 261 263 265 267 270 273 275 276 278 280 282 285 287 289 291 291 292 295 297 298 299 299 300 300 300 302 305 307 310 316
234 231 230 233 234 234 234 234 234 235 234 233 231 231 231 231 230 231 233 236 238 240 240 240 239 239 240 241 242 243 245 246 246 247 247 247 247 248 249 250 250 250 248 248 248 250 251 251 251 252 252 254 256 257 259 261 264 265 266 267 270 273 276 278 281 283 285 287 288 289 290 292 295 296 297 298 298 299 300 301 304 306 308 311 318
241 239 236 237 236 235 236 236 236 237 238 239 239 238 237 236 235 235 236 237 239 241 242 243 242 241 241 242 244 245 246 246 247 249 252 253 254 255 256 257 258 259 259 257 255 254 254 254 254 255 257 259 261 263 265 266 268 269 270 271 272 274 277 280 282 284 286 287 289 291 293 294 296 297 298 298 297 298 300 302 305 308 310 313 317
240 241 239 238 235 234 234 234 234 236 238 241 244 242 241 241 241 240 240 240 242 242 243 245 244 243 242 243 245 246 247 247 247 249 252 255 257 259 261 263 264 266 267 267 265 262 261 260 260 260 262 263 266 268 270 271 272 273 274 276 276 278 280 282 284 285 287 289 291 293 295 296 297 297 298 298 297 299 301 303 305 308 311 313 314
238 238 235 234 232 232 233 233 234 236 237 241 244 243 241 242 242 243 243 243 244 244 245 245 245 244 242 242 244 246 247 247 248 249 251 254 257 259 260 262 264 265 266 266 266 266 266 265 265 266 266 268 269 271 272 273 274 275 276 277 279 281 282 284 286 288 289 290 291 292 294 296 296 297 298 298 299 300 301 302 304 306 308 308 309
236 237 232 229 228 230 234 236 236 238 239 241 243 243 242 243 244 244 243 243 244 246 246 246 246 244 242 242 244 245 247 248 249 250 252 255 257 259 260 261 262 262 262 262 262 264 265 266 267 268 269 270 271 272 273 273 273 274 276 277 279 281 282 284 286 288 289 290 291 293 295 297 298 300 302 302 302 303 304 303 303 304 304 304 304
221 227 225 223 222 223 231 236 236 237 238 239 241 242 242 243 244 244 243 243 244 247 249 248 247 245 243 242 243 246 249 251 253 254 255 256 258 260 261 262 262 262 261 260 261 263 265 267 268 269 269 269 270 271 271 272 273 274 275 277 279 280 282 284 285 285 286 288 290 293 295 297 299 301 303 303 304 305 305 304 304 305 303 301 302
204 213 213 214 217 217 223 227 226 228 230 232 235 237 238 240 243 244 244 243 244 248 251 249 245 244 243 244 245 248 250 253 257 259 260 260 260 261 261 262 263 264 264 263 263 263 265 267 269 269 268 268 268 269 270 272 274 276 277 277 278 279 281 283 282 281 282 284 287 290 293 296 298 299 300 301 302 303 302 301 304 305 301 299 300
202 206 206 207 210 210 212 214 215 220 226 230 232 232 233 236 239 242 244 244 245 249 251 248 244 243 243 244 246 248 250 253 257 261 262 262 262 261 261 261 262 265 266 266 266 265 265 267 268 268 267 266 265 266 269 271 273 275 276 276 276 277 279 278 277 276 277 280 284 288 291 294 296 297 297 298 299 299 298 300 302 301 298 298 299
214 214 211 210 210 208 209 211 213 219 224 228 231 232 232 234 235 237 240 243 246 249 250 248 246 246 246 247 248 249 251 254 257 259 260 261 261 260 258 258 261 263 265 265 265 265 265 266 267 267 267 265 264 265 266 268 270 272 273 274 275 277 277 276 276 276 278 279 282 285 288 291 293 294 295 296 296 296 296 298 298 296 295 296 297
221 220 220 220 218 216 217 218 218 222 225 225 227 230 230 230 232 232 234 237 241 245 249 251 252 252 250 249 250 253 256 258 260 260 261 262 262 261 259 260 262 264 263 263 264 266 265 266 266 266 266 266 266 266 266 267 269 270 272 273 274 275 276 276 277 278 279 280 282 283 286 288 289 291 292 293 293 293 294 294 294 292 293 293 294
206 207 211 216 218 219 220 220 219 224 227 225 226 229 229 230 231 231 231 233 236 240 243 246 251 254 254 253 252 254 257 260 261 262 262 263 263 263 263 263 265 263 260 259 263 266 266 265 265 264 265 266 267 268 268 269 270 270 271 272 273 274 275 275 276 277 278 280 282 282 284 285 286 288 289 290 289 288 289 289 290 291 291 292 293
196 193 194 199 205 209 210 210 212 218 222 222 223 227 229 231 235 237 236 237 239 241 244 247 251 257 262 264 263 260 260 260 261 262 263 263 262 262 262 263 264 263 260 260 264 267 267 267 266 265 265 266 267 268 269 270 271 271 271 272 273 274 275 276 276 276 277 279 280 281 281 282 282 283 285 286 286 285 285 286 287 289 289 290 292
199 196 193 193 197 202 204 205 207 210 214 216 217 219 222 226 233 239 242 245 246 248 250 252 255 257 259 262 262 261 261 262 262 262 262 262 260 260 260 262 263 263 261 263 266 268 268 268 269 268 267 268 269 270 271 271 272 272 272 273 273 274 276 277 277 276 277 278 279 280 280 281 281 282 283 285 285 284 285 286 288 289 289 290 291
217 218 215 210 208 211 213 216 218 219 220 220 220 220 222 227 234 241 245 248 251 251 250 251 253 253 253 254 255 255 255 259 261 262 261 261 259 259 261 262 262 261 260 262 265 266 266 267 269 270 270 270 271 273 274 274 274 275 275 275 276 276 277 278 278 278 277 278 280 281 282 281 282 282 283 283 284 285 286 287 288 289 290 290 291
242 245 247 247 243 239 236 235 236 237 238 239 239 239 240 242 246 250 253 254 255 256 256 256 257 258 259 259 259 259 259 262 265 267 267 267 265 263 262 261 261 259 259 260 263 265 265 265 266 268 269 270 271 273 274 275 276 276 277 278 278 279 279 279 279 279 279 280 281 282 282 282 283 283 284 284 286 287 288 289 289 290 290 291 292
251 253 256 259 260 260 258 255 252 251 251 250 252 253 255 256 256 257 257 258 259 260 261 262 264 266 268 269 271 272 273 274 275 277 277 277 276 275 274 271 269 268 267 268 270 270 270 270 269 270 271 271 272 272 272 272 272 273 275 277 278 278 278 279 280 280 281 282 283 284 284 283 283 284 284 285 287 288 289 289 289 290 291 292 293
258 257 257 258 260 261 263 264 265 265 264 263 262 262 262 262 262 262 261 261 261 262 263 265 267 268 271 273 275 277 279 280 281 282 282 283 282 282 281 280 279 279 279 280 280 280 280 279 278 278 277 277 276 276 275 274 273 273 274 275 276 277 278 279 280 281 283 284 285 285 285 285 285 285 285 285 286 287 288 289 289 290 291 292 293
266 265 264 263 263 263 264 265 267 268 270 271 271 271 270 269 268 268 268 268 267 268 268 270 271 272 274 275 277 279 280 282 283 284 284 285 285 285 284 283 282 281 281 281 281 282 282 282 282 283 283 283 283 282 281 280 279 278 278 277 278 278 278 279 280 281 282 282 282 283 283 284 284 285 284 284 285 285 286 287 287 288 289 289 290
271 270 269 269 269 268 268 269 269 269 270 270 271 272 273 273 273 272 272 272 272 272 273 273 274 275 276 277 278 279 279 280 281 282 283 283 283 283 283 283 282 282 281 280 280 280 280 280 281 281 283 284 284 285 286 285 285 284 284 284 284 284 284 284 284 284 283 282 281 281 281 281 281 281 282 282 282 283 283 284 285 286 286 287 287
273 273 271 271 270 270 270 270 270 271 271 270 270 270 270 271 272 272 272 272 272 272 272 273 273 274 275 276 277 277 278 278 279 280 280 280 281 280 280 279 279 279 279 280 280 280 280 280 280 281 281 282 282 283 284 285 286 287 287 288 288 289 289 290 290 290 289 287 286 285 283 282 281 281 280 280 280 281 281 281 282 283 284 284 285
278 277 275 273 272 270 269 269 269 269 270 270 270 270 269 269 269 270 271 272 272 273 273 273 273 273 273 274 274 275 276 276 277 277 278 278 278 279 279 278 278 277 277 277 278 278 279 280 281 281 281 281 281 281 281 281 282 283 283 284 285 286 287 288 288 289 290 290 290 289 288 286 285 284 282 281 281 280 280 281 281 281 281 281 282
283 282 280 278 276 273 271 269 268 268 268 268 269 270 269 269 269 269 270 271 272 273 274 274 275 275 274 274 274 274 274 275 275 275 276 276 276 276 277 277 277 277 277 277 276 276 277 278 279 281 281 282 282 282 281 281 281 280 280 281 281 282 283 284 285 285 286 287 287 288 288 288 287 287 286 285 284 283 282 281 280 279 279 279 280
285 285 283 281 279 275 272 270 268 266 266 266 267 269 269 270 270 270 270 271 272 273 274 275 276 276 276 277 276 276 275 275 275 275 275 275 275 274 274 274 275 276 276 276 276 276 276 276 277 278 280 281 283 283 284 284 284 284 284 283 283 283 283 283 284 284 284 284 285 285 285 285 285 285 286 287 287 287 285 284 282 280 279 278 278
282 283 283 282 280 277 274 270 267 266 265 264 265 266 268 270 271 272 271 271 272 272 273 274 274 275 276 276 277 277 277 277 276 276 276 275 274 273 272 272 272 272 273 274 276 277 279 280 281 281 281 282 283 285 286 287 288 289 289 290 289 289 289 289 288 288 287 287 286 286 285 284 284 283 283 283 284 285 285 285 285 283 282 280 279
279 277 277 278 278 276 274 271 268 266 265 264 265 266 267 268 270 273 274 275 275 275 275 275 275 276 276 276 276 277 277 277 277 277 277 276 275 274 272 271 271 271 273 274 276 279 280 282 283 284 285 286 286 287 288 289 290 291 292 293 294 295 295 295 295 294 294 293 293 292 291 290 288 287 286 284 283 282 281 281 282 282 283 283 281
276 274 272 272 272 272 272 270 268 266 266 266 267 268 269 269 270 271 273 275 277 279 280 280 279 279 279 279 279 279 278 277 277 277 277 276 276 275 274 273 273 274 276 278 280 282 284 285 286 287 288 289 290 290 291 291 291 292 293 294 295 296 297 298 299 299 299 298 298 297 297 296 295 293 292 290 288 285 283 280 279 278 278 279 280
274 272 270 269 269 269 269 268 268 267 266 266 267 269 270 271 271 272 272 273 275 277 280 282 283 283 282 282 282 282 281 279 278 277 276 276 275 275 276 276 278 279 280 281 283 284 286 288 289 290 291 292 292 292 292 292 293 293 294 295 296 296 297 298 299 300 301 301 301 300 300 299 298 297 296 295 293 291 289 286 284 281 279 277 277
273 271 270 269 268 268 268 267 267 266 266 266 266 267 269 270 271 273 273 273 274 275 277 280 282 283 284 283 283 283 282 282 281 280 278 277 277 277 278 280 281 283 284 285 286 287 287 289 290 291 292 293 293 293 293 293 294 294 295 296 296 297 298 299 299 300 300 301 301 301 301 301 300 300 299 297 296 295 293 292 289 287 285 282 280
272 271 270 269 268 268 268 268 267 267 267 267 266 267 268 269 270 272 273 274 275 276 276 277 278 280 282 282 283 282 282 282 282 282 281 281 281 281 282 283 284 285 286 287 288 288 289 290 290 291 292 293 293 294 294 294 294 295 295 296 296 297 298 298 299 299 299 299 299 300 300 300 301 301 300 300 299 297 296 294 293 291 289 286 284
269 268 268 268 268 268 268 268 268 268 268 269 269 269 269 269 270 270 271 272 274 275 276 276 276 276 277 278 279 280 281 281 281 282 283 283 283 283 283 284 285 285 286 287 288 289 289 290 290 291 291 291 291 291 292 292 293 294 295 296 296 297 297 297 298 298 298 298 298 298 298 298 299 299 299 300 299 299 298 297 295 294 292 289 287
264 264 264 265 265 266 267 268 268 269 269 270 270 271 271 271 272 272 272 273 274 274 275 275 275 275 275 275 276 277 278 279 280 281 282 282 283 283 284 284 285 285 286 286 287 287 287 288 288 289 289 289 288 288 289 290 291 293 294 296 296 297 297 298 298 298 297 297 297 297 297 297 297 297 297 297 298 298 298 297 297 296 295 293 291
262 261 261 261 262 264 265 267 268 268 269 270 270 270 271 271 272 273 273 274 274 275 275 275 275 274 275 275 276 277 278 278 278 278 279 280 281 282 282 283 283 284 285 286 286 286 286 286 287 286 286 287 287 287 287 288 290 292 293 295 296 297 297 298 298 298 297 297 297 296 296 296 296 296 296 296 296 296 296 296 296 296 295 295 293
262 261 260 260 261 262 263 265 267 268 268 269 270 270 271 271 271 272 272 273 273 274 274 274 274 274 275 275 276 276 277 277 277 277 277 278 278 279 280 281 281 282 283 284 284 285 286 286 286 286 286 286 286 286 287 288 289 291 292 293 294 295 296 297 297 297 297 296 296 296 296 296 295 295 295 295 295 295 295 295 295 295 294 294 293
262 262 261 261 261 261 262 264 265 267 268 269 270 271 272 271 271 271 272 272 272 272 272 273 273 274 275 275 275 276 276 276 277 277 277 278 278 278 279 279 280 281 281 282 283 283 284 285 285 286 286 286 286 287 287 288 290 291 293 294 294 295 295 296 296 296 296 296 296 296 296 295 295 295 295 295 295 295 294 294 294 294 294 293 293
263 263 262 262 262 262 263 264 265 266 267 269 270 271 271 271 271 272 272 273 273 273 274 275 275 275 275 275 276 275 276 276 277 277 278 278 279 279 279 279 280 280 281 282 283 283 284 284 285 286 286 287 288 289 290 291 292 293 294 295 296 296 297 297 297 297 297 297 297 297 296 296 296 295 295 295 295 294 294 294 294 293 293 292 292
265 265 265 265 265 265 265 266 266 266 267 268 269 270 270 271 272 272 273 273 274 275 275 276 276 276 277 277 277 277 277 278 278 278 279 279 280 280 280 280 281 282 282 283 283 283 284 284 285 285 286 287 288 290 291 292 294 295 295 296 297 298 299 299 299 299 299 299 298 298 298 297 297 296 296 295 295 294 294 293 293 293 292 291 291
268 269 269 269 269 269 269 269 269 269 269 269 269 270 271 271 272 273 274 274 274 275 275 275 275 276 277 278 278 278 278 279 279 279 280 281 281 282 282 282 283 283 284 284 284 284 285 285 285 286 286 287 288 290 291 292 293 295 296 297 298 300 301 302 302 302 302 301 300 299 299 298 297 297 296 296 295 294 294 293 293 292 291 290 289
271 271 271 272 272 272 272 271 271 270 270 270 271 271 272 273 274 275 276 276 276 276 276 276 276 277 277 277 278 278 278 279 279 280 280 281 281 282 282 283 283 284 284 284 285 285 285 285 285 286 286 287 288 289 290 292 293 294 296 297 298 300 301 302 303 303 303 302 301 301 300 298 297 297 296 295 295 295 294 294 293 292 291 290 288
273 272 273 273 274 273 273 273 272 271 271 271 272 273 274 275 276 276 277 277 277 277 278 278 278 278 278 278 278 278 278 279 279 279 280 280 280 280 281 281 282 282 283 283 283 284 284 285 286 286 287 288 289 290 291 292 294 295 296 297 298 299 300 300 301 300 300 300 300 299 298 297 296 295 294 294 294 294 294 294 293 292 291 289 287
274 274 274 274 275 275 275 275 274 274 273 273 274 275 276 276 277 277 277 277 277 277 278 278 279 279 279 279 278 278 278 278 278 279 279 279 280 280 280 280 280 280 281 281 282 283 285 287 288 289 290 291 292 292 293 294 295 296 297 298 298 299 299 299 299 298 298 297 297 296 296 295 294 293 292 292 293 293 292 292 292 292 291 289 287
277 276 274 274 274 274 275 275 275 276 275 276 276 277 277 277 277 277 277 277 277 277 277 278 278 279 279 279 279 278 278 278 278 279 279 279 279 279 279 279 278 279 280 282 284 286 288 289 290 291 292 293 293 294 295 295 296 297 297 297 298 298 297 297 297 296 296 295 295 294 292 291 290 289 289 290 290 290 290 290 290 290 290 289 287
276 275 274 273 274 274 275 276 277 277 278 278 279 279 280 280 279 279 278 278 278 277 277 278 278 278 278 279 279 279 278 278 279 278 278 278 278 277 277 277 279 281 283 285 287 288 290 291 292 293 294 295 295 296 296 296 297 297 297 297 296 296 296 295 295 294 294 293 293 291 290 288 287 286 286 286 287 287 288 288 288 288 289 288 285
Height
3238 3239 3240 3242 3243 3244 3246 3247 3248 3249 3250 3251 3252 3253 3254 3255 3256 3257 3258 3259 3259 3260 3261 3261 3262 3263 3263 3264 3265 3265 3265 3266 3266 3267 3267 3268 3269 3269 3270 3270 3270 3271 3271 3271 3272 3272 3273 3273 3274 3274 3275 3275 3275 3275 3275 3276 3276 3276 3276 3275 3275 3275 3274 3274 3274 3274 3274 3273 3273 3272 3272 3271 3271 3270 3269 3268 3267 3266 3265 3264 3262 3261 3260 3259 3258
3237 3238 3239 3240 3241 3243 3244 3245 3246 3247 3249 3250 3251 3252 3253 3254 3255 3256 3257 3258 3259 3259 3260 3261 3261 3262 3263 3263 3264 3265 3265 3265 3266 3266 3267 3267 3268 3268 3269 3269 3269 3270 3270 3270 3271 3271 3272 3272 3272 3273 3273 3274 3274 3274 3274 3274 3275 3275 3274 3274 3274 3274 3273 3273 3273 3273 3273 3272 3271 3271 3270 3270 3269 3268 3267 3267 3266 3265 3264 3262 3261 3260 3259 3258 3257
3236 3237 3238 3239 3240 3241 3243 3244 3245 3246 3247 3248 3250 3251 3252 3252 3253 3254 3255 3256 3258 3259 3259 3260 3261 3261 3262 3262 3263 3264 3264 3265 3266 3266 3266 3267 3267 3267 3268 3268 3269 3269 3269 3269 3270 3270 3271 3271 3271 3272 3272 3272 3272 3272 3272 3273 3273 3273 3273 3273 3273 3272 3272 3272 3271 3271 3271 3271 3270 3269 3268 3267 3267 3266 3265 3265 3264 3263 3262 3261 3260 3259 3257 3256 3256
3234 3235 3237 3238 3239 3240 3241 3242 3243 3245 3246 3247 3248 3249 3250 3251 3252 3253 3254 3255 3256 3257 3258 3259 3260 3261 3261 3262 3262 3263 3263 3264 3265 3265 3266 3266 3266 3267 3267 3268 3268 3268 3268 3268 3269 3269 3270 3270 3270 3270 3271 3271 3271 3271 3271 3271 3271 3271 3271 3271 3271 3271 3270 3270 3270 3269 3269 3269 3268 3267 3266 3266 3265 3264 3263 3263 3262 3261 3260 3259 3258 3257 3256 3255 3254
3232 3233 3235 3236 3237 3238 3239 3240 3241 3243 3244 3245 3246 3247 3248 3249 3250 3251 3252 3253 3254 3255 3256 3258 3259 3259 3260 3260 3261 3261 3261 3262 3263 3264 3264 3265 3266 3266 3266 3267 3267 3267 3267 3268 3268 3268 3269 3269 3269 3269 3270 3270 3270 3270 3270 3270 3270 3270 3270 3269 3269 3269 3269 3268 3268 3268 3267 3267 3267 3266 3265 3264 3264 3263 3262 3261 3260 3259 3258 3257 3256 3255 3254 3253 3252
3229 3231 3232 3233 3235 3236 3237 3238 3239 3241 3242 3243 3244 3245 3246 3247 3249 3250 3251 3252 3252 3253 3254 3256 3257 3258 3258 3259 3259 3260 3260 3261 3261 3262 3263 3263 3264 3265 3265 3266 3266 3266 3267 3267 3267 3267 3267 3268 3268 3268 3268 3268 3268 3268 3268 3268 3268 3268 3268 3268 3268 3268 3267 3267 3266 3266 3266 3266 3265 3265 3264 3263 3263 3262 3260 3259 3258 3257 3256 3256 3255 3253 3252 3251 3251
3226 3228 3229 3231 3232 3234 3235 3237 3238 3239 3240 3241 3243 3244 3245 3246 3247 3248 3249 3250 3251 3252 3253 3254 3255 3256 3256 3257 3258 3258 3259 3259 3260 3260 3261 3262 3263 3263 3264 3264 3265 3265 3265 3265 3266 3266 3266 3266 3266 3266 3267 3267 3267 3267 3267 3267 3267 3267 3267 3267 3266 3266 3266 3265 3265 3264 3264 3264 3263 3263 3263 3262 3261 3260 3259 3258 3257 3256 3254 3253 3253 3252 3251 3250 3249
3225 3226 3228 3229 3230 3232 3234 3235 3236 3237 3239 3240 3241 3242 3243 3244 3245 3246 3247 3248 3249 3250 3251 3252 3253 3254 3255 3255 3256 3257 3257 3258 3259 3259 3259 3260 3260 3261 3262 3262 3263 3263 3264 3264 3264 3264 3265 3265 3265 3265 3265 3265 3265 3265 3265 3265 3265 3265 3265 3265 3264 3264 3264 3263 3263 3262 3262 3262 3261 3261 3260 3260 3259 3259 3258 3257 3256 3254 3253 3251 3250 3250 3249 3249 3248
3223 3224 3226 3227 3228 3230 3232 3233 3234 3235 3237 3238 3239 3240 3241 3241 3242 3244 3245 3246 3247 3248 3249 3250 3251 3252 3253 3254 3254 3255 3256 3257 3258 3258 3258 3258 3258 3259 3260 3260 3261 3261 3262 3262 3262 3263 3263 3263 3263 3263 3263 3263 3263 3264 3264 3263 3263 3263 3263 3263 3262 3262 3262 3261 3261 3260 3260 3259 3259 3258 3258 3258 3257 3257 3256 3255 3254 3252 3251 3250 3249 3248 3247 3247 3247
3219 3220 3222 3225 3226 3228 3229 3230 3231 3233 3234 3236 3237 3238 3239 3239 3240 3241 3242 3243 3245 3246 3247 3248 3249 3250 3251 3252 3253 3253 3254 3255 3256 3256 3256 3256 3256 3257 3257 3258 3259 3259 3260 3260 3260 3261 3261 3261 3261 3261 3261 3261 3262 3262 3262 3262 3261 3261 3261 3261 3260 3260 3260 3259 3259 3258 3258 3257 3257 3256 3256 3256 3255 3254 3253 3253 3251 3250 3249 3248 3247 3246 3245 3244 3245
3215 3215 3219 3222 3224 3225 3226 3227 3229 3230 3231 3233 3234 3235 3236 3237 3238 3239 3240 3241 3242 3243 3244 3245 3246 3247 3248 3249 3251 3252 3252 3253 3253 3254 3254 3255 3255 3255 3256 3256 3257 3257 3258 3258 3259 3259 3259 3259 3259 3259 3260 3260 3260 3260 3260 3260 3260 3259 3259 3259 3258 3258 3257 3257 3257 3256 3256 3255 3255 3254 3254 3253 3253 3252 3251 3250 3249 3248 3247 3246 3245 3244 3243 3242 3242
3213 3213 3216 3219 3221 3222 3223 3224 3226 3227 3228 3230 3231 3232 3233 3234 3236 3237 3237 3238 3239 3240 3241 3243 3244 3245 3246 3247 3248 3248 3249 3249 3250 3251 3252 3252 3253 3254 3254 3255 3255 3256 3256 3256 3257 3257 3257 3257 3257 3257 3258 3258 3258 3258 3258 3257 3257 3257 3257 3257 3256 3256 3255 3255 3255 3254 3254 3253 3253 3252 3252 3251 3251 3250 3249 3248 3247 3246 3245 3244 3243 3242 3241 3240 3239
3210 3211 3214 3216 3217 3219 3219 3220 3222 3223 3225 3227 3228 3229 3230 3231 3233 3234 3234 3235 3236 3237 3238 3240 3241 3242 3243 3243 3244 3245 3245 3246 3247 3248 3249 3250 3250 3251 3252 3252 3253 3253 3254 3254 3254 3255 3255 3255 3255 3256 3256 3255 3255 3255 3255 3255 3254 3254 3254 3254 3254 3254 3253 3253 3252 3252 3251 3250 3250 3250 3250 3248 3248 3248 3247 3245 3244 3243 3243 3242 3241 3240 3239 3238 3237
3207 3209 3211 3212 3214 3215 3216 3218 3219 3220 3222 3224 3225 3226 3227 3228 3230 3231 3231 3232 3233 3233 3235 3236 3237 3238 3239 3240 3240 3241 3242 3243 3244 3245 3246 3247 3248 3248 3249 3249 3250 3251 3251 3251 3251 3252 3252 3253 3253 3254 3253 3253 3253 3252 3252 3252 3252 3252 3252 3252 3252 3252 3251 3251 3250 3249 3248 3247 3246 3246 3246 3246 3245 3244 3244 3243 3241 3240 3240 3239 3239 3238 3236 3235 3234
3206 3207 3208 3209 3211 3212 3213 3214 3216 3217 3219 3220 3221 3222 3223 3225 3226 3227 3228 3228 3229 3230 3231 3232 3234 3235 3236 3236 3236 3237 3239 3240 3241 3242 3243 3244 3245 3245 3246 3246 3247 3248 3248 3248 3248 3249 3249 3250 3250 3251 3251 3251 3250 3250 3249 3249 3249 3249 3249 3249 3249 3249 3249 3249 3248 3247 3246 3245 3244 3243 3243 3243 3242 3241 3241 3240 3238 3237 3236 3235 3235 3234 3233 3231 3231
3204 3205 3206 3207 3208 3209 3210 3211 3212 3214 3215 3217 3217 3218 3219 3221 3222 3224 3224 3225 3225 3226 3227 3229 3230 3232 3232 3233 3233 3235 3236 3238 3239 3240 3241 3241 3242 3243 3243 3243 3244 3245 3245 3245 3245 3246 3246 3247 3247 3248 3248 3248 3247 3247 3246 3246 3246 3247 3247 3247 3247 3246 3247 3246 3246 3245 3244 3243 3242 3241 3240 3240 3240 3239 3238 3237 3236 3234 3233 3232 3232 3231 3229 3227 3227
3203 3204 3205 3206 3207 3208 3209 3209 3210 3212 3213 3214 3215 3215 3216 3217 3218 3220 3221 3222 3222 3223 3224 3226 3227 3228 3229 3229 3231 3232 3233 3234 3236 3237 3237 3238 3239 3239 3240 3241 3241 3242 3242 3242 3242 3243 3243 3243 3244 3244 3245 3245 3244 3244 3244 3244 3244 3244 3244 3244 3243 3243 3244 3244 3242 3242 3241 3240 3239 3238 3238 3237 3237 3236 3236 3235 3234 3232 3230 3229 3229 3227 3225 3224 3223
3201 3202 3203 3204 3205 3206 3207 3208 3209 3210 3211 3212 3212 3213 3213 3214 3215 3217 3218 3219 3220 3221 3223 3224 3224 3225 3225 3226 3228 3229 3229 3231 3232 3233 3233 3234 3236 3236 3237 3237 3238 3238 3239 3239 3239 3239 3240 3240 3240 3241 3241 3241 3241 3241 3241 3240 3240 3240 3240 3240 3240 3240 3241 3240 3239 3239 3238 3237 3237 3236 3235 3234 3234 3233 3233 3232 3231 3229 3227 3226 3226 3224 3222 3221 3220
3198 3199 3201 3202 3203 3204 3205 3206 3207 3208 3209 3210 3211 3211 3212 3212 3213 3214 3215 3217 3218 3220 3221 3222 3222 3223 3223 3224 3225 3225 3226 3227 3228 3229 3230 3231 3232 3233 3233 3234 3234 3235 3235 3235 3236 3236 3236 3236 3237 3237 3237 3238 3238 3238 3237 3237 3237 3237 3237 3236 3236 3237 3237 3236 3235 3235 3235 3234 3234 3233 3232 3231 3231 3230 3230 3229 3228 3226 3225 3224 3223 3221 3219 3218 3217
3196 3197 3198 3200 3201 3202 3203 3204 3205 3206 3207 3208 3209 3210 3210 3210 3211 3212 3213 3214 3216 3217 3219 3220 3220 3220 3219 3220 3221 3222 3223 3224 3224 3225 3226 3227 3228 3229 3229 3230 3230 3231 3231 3231 3232 3232 3232 3232 3232 3232 3233 3233 3234 3234 3234 3233 3233 3233 3233 3232 3232 3233 3233 3232 3232 3231 3231 3231 3230 3230 3229 3228 3227 3226 3226 3226 3225 3223 3222 3221 3219 3218 3216 3215 3214
3195 3196 3197 3198 3199 3200 3201 3202 3203 3204 3205 3206 3207 3208 3208 3209 3209 3210 3210 3211 3213 3214 3215 3216 3216 3217 3216 3217 3218 3219 3220 3221 3221 3222 3222 3223 3223 3224 3225 3226 3226 3227 3227 3227 3228 3228 3228 3227 3227 3228 3229 3229 3229 3230 3229 3229 3229 3229 3229 3228 3228 3228 3228 3228 3228 3227 3226 3226 3226 3226 3226 3225 3224 3223 3222 3222 3221 3220 3219 3218 3217 3216 3214 3212 3211
3194 3195 3196 3197 3198 3199 3200 3201 3202 3203 3203 3204 3205 3206 3207 3207 3207 3208 3208 3209 3209 3210 3211 3212 3213 3214 3215 3215 3216 3216 3217 3218 3218 3219 3219 3219 3220 3221 3221 3222 3223 3223 3223 3224 3224 3224 3224 3223 3223 3224 3225 3225 3225 3225 3225 3225 3224 3224 3224 3224 3223 3223 3223 3223 3223 3223 3222 3222 3222 3222 3222 3221 3221 3220 3219 3218 3218 3217 3216 3215 3214 3213 3212 3210 3209
3193 3194 3195 3196 3197 3198 3199 3200 3200 3201 3202 3203 3204 3204 3205 3205 3206 3206 3207 3207 3208 3208 3209 3210 3212 3213 3214 3214 3215 3215 3216 3216 3216 3216 3217 3217 3218 3218 3218 3218 3219 3219 3219 3220 3220 3220 3219 3219 3219 3220 3220 3220 3221 3221 3220 3220 3220 3220 3219 3219 3219 3218 3218 3218 3218 3218 3218 3217 3217 3217 3217 3217 3216 3216 3215 3214 3214 3213 3212 3212 3211 3209 3208 3208 3206
3191 3192 3193 3194 3196 3197 3198 3198 3199 3200 3200 3201 3202 3203 3203 3204 3205 3205 3206 3206 3207 3207 3208 3209 3210 3211 3212 3212 3213 3214 3214 3214 3214 3214 3214 3215 3215 3215 3215 3215 3215 3215 3215 3215 3216 3216 3215 3215 3215 3215 3216 3216 3216 3216 3216 3216 3215 3215 3215 3214 3214 3214 3214 3214 3213 3213 3213 3213 3213 3212 3212 3212 3211 3211 3210 3210 3209 3209 3208 3207 3206 3205 3204 3203 3203
3190 3191 3192 3193 3194 3195 3196 3196 3197 3198 3199 3199 3200 3201 3202 3202 3203 3204 3204 3205 3205 3206 3206 3207 3207 3208 3208 3209 3209 3210 3210 3211 3211 3211 3212 3212 3212 3212 3212 3212 3212 3212 3212 3212 3212 3212 3212 3212 3211 3211 3211 3211 3212 3212 3212 3212 3212 3211 3211 3210 3210 3209 3209 3209 3209 3209 3209 3209 3209 3208 3208 3207 3207 3206 3206 3205 3205 3204 3204 3203 3202 3201 3200 3199 3198
3189 3190 3190 3191 3192 3193 3193 3194 3195 3195 3196 3197 3198 3199 3200 3200 3201 3201 3202 3203 3203 3203 3204 3204 3204 3204 3205 3205 3205 3206 3206 3206 3207 3207 3208 3208 3208 3208 3208 3208 3208 3208 3208 3208 3208 3208 3208 3208 3208 3208 3207 3207 3207 3207 3207 3207 3207 3206 3206 3206 3206 3205 3205 3204 3204 3204 3204 3204 3204 3204 3203 3203 3202 3201 3201 3201 3200 3200 3199 3198 3197 3197 3196 3195 3194
3186 3187 3188 3189 3190 3190 3191 3192 3192 3193 3193 3194 3195 3196 3197 3197 3198 3198 3199 3199 3200 3200 3200 3200 3200 3201 3201 3201 3202 3202 3202 3202 3202 3202 3203 3203 3203 3203 3203 3203 3204 3204 3204 3204 3204 3204 3204 3204 3204 3204 3204 3204 3204 3203 3203 3203 3202 3202 3201 3201 3201 3201 3200 3199 3199 3199 3199 3199 3199 3199 3198 3198 3197 3196 3196 3196 3195 3195 3194 3194 3193 3192 3192 3191 3190
3183 3184 3185 3185 3186 3187 3188 3188 3189 3190 3190 3191 3192 3192 3193 3193 3193 3194 3195 3195 3195 3196 3196 3196 3196 3196 3196 3197 3197 3197 3198 3198 3198 3198 3198 3198 3198 3198 3198 3198 3199 3199 3199 3200 3200 3200 3200 3200 3200 3200 3200 3200 3200 3199 3199 3199 3198 3198 3197 3196 3196 3196 3195 3195 3195 3194 3194 3194 3193 3193 3193 3192 3192 3191 3191 3190 3190 3190 3190 3189 3187 3187 3186 3186 3185
3180 3180 3181 3182 3182 3183 3184 3184 3185 3186 3186 3187 3188 3188 3189 3189 3189 3189 3189 3190 3190 3191 3191 3191 3192 3192 3192 3192 3192 3193 3193 3193 3193 3193 3193 3193 3193 3194 3194 3194 3194 3194 3195 3195 3195 3195 3195 3195 3195 3195 3195 3195 3195 3195 3195 3195 3194 3194 3193 3192 3192 3191 3191 3191 3191 3190 3189 3189 3189 3188 3188 3187 3187 3186 3185 3185 3184 3184 3184 3184 3183 3181 3181 3180 3180
3176 3177 3177 3178 3178 3179 3180 3180 3181 3181 3181 3182 3182 3183 3184 3185 3185 3184 3184 3184 3184 3185 3185 3186 3186 3187 3187 3187 3188 3188 3188 3188 3189 3189 3189 3189 3189 3189 3189 3190 3190 3190 3191 3191 3191 3191 3191 3191 3191 3191 3191 3191 3191 3191 3190 3190 3190 3189 3189 3188 3188 3187 3187 3187 3187 3186 3185 3185 3184 3184 3183 3182 3182 3181 3181 3180 3179 3179 3179 3178 3178 3176 3175 3174 3174
3173 3173 3174 3174 3175 3175 3176 3176 3176 3177 3177 3177 3177 3178 3178 3179 3180 3180 3180 3180 3180 3180 3180 3180 3181 3181 3182 3182 3183 3183 3184 3184 3184 3184 3185 3185 3185 3185 3185 3185 3186 3186 3186 3187 3187 3187 3187 3187 3186 3186 3186 3186 3186 3186 3186 3185 3185 3185 3185 3184 3183 3183 3183 3183 3182 3182 3181 3180 3180 3179 3178 3178 3177 3177 3176 3175 3175 3174 3174 3173 3172 3171 3170 3169 3169
3169 3169 3170 3170 3171 3171 3172 3172 3172 3173 3173 3173 3173 3173 3173 3174 3174 3175 3175 3175 3175 3175 3175 3175 3175 3176 3176 3177 3178 3178 3179 3179 3180 3180 3180 3181 3181 3181 3181 3181 3181 3182 3182 3182 3182 3182 3183 3182 3182 3182 3182 3182 3181 3181 3181 3181 3180 3180 3180 3179 3179 3178 3178 3178 3177 3177 3176 3176 3175 3174 3173 3173 3172 3172 3171 3171 3170 3169 3169 3168 3167 3166 3165 3165 3164
3165 3166 3166 3167 3167 3168 3168 3168 3168 3169 3169 3169 3169 3169 3169 3169 3169 3170 3170 3170 3170 3171 3171 3171 3171 3171 3172 3172 3173 3173 3174 3174 3175 3175 3176 3176 3177 3177 3177 3177 3178 3178 3178 3178 3178 3178 3178 3178 3178 3178 3178 3177 3177 3177 3177 3176 3176 3175 3175 3175 3174 3174 3173 3173 3173 3172 3171 3170 3170 3169 3168 3167 3167 3166 3166 3165 3165 3164 3163 3163 3162 3161 3160 3159 3159
3162 3163 3163 3164 3164 3164 3164 3165 3165 3165 3165 3165 3165 3166 3166 3166 3166 3166 3166 3166 3166 3166 3166 3167 3167 3167 3168 3168 3169 3169 3169 3170 3170 3171 3171 3171 3172 3172 3173 3173 3173 3174 3174 3174 3174 3174 3174 3174 3174 3174 3174 3173 3173 3173 3173 3172 3171 3171 3170 3170 3169 3169 3168 3168 3168 3167 3166 3166 3165 3164 3163 3162 3161 3160 3160 3160 3159 3158 3157 3157 3156 3155 3155 3154 3153
3159 3159 3160 3160 3161 3161 3161 3161 3162 3162 3162 3162 3162 3162 3162 3162 3162 3162 3162 3162 3162 3162 3162 3162 3162 3163 3163 3164 3164 3165 3165 3166 3166 3166 3166 3167 3167 3168 3168 3168 3169 3169 3170 3170 3170 3170 3170 3170 3170 3169 3169 3169 3169 3168 3168 3167 3167 3166 3166 3165 3165 3164 3163 3163 3162 3161 3161 3160 3159 3159 3158 3157 3156 3155 3154 3154 3153 3152 3152 3151 3150 3149 3149 3148 3147
3155 3156 3156 3157 3157 3157 3158 3158 3158 3158 3158 3159 3159 3158 3158 3158 3159 3159 3159 3159 3159 3159 3159 3158 3158 3158 3159 3159 3160 3160 3160 3161 3161 3162 3162 3162 3163 3163 3163 3164 3164 3165 3165 3165 3165 3165 3165 3165 3165 3165 3164 3164 3164 3163 3163 3162 3161 3161 3160 3160 3159 3159 3158 3157 3157 3156 3155 3154 3154 3153 3152 3151 3150 3149 3148 3148 3147 3146 3146 3145 3144 3144 3143 3142 3141
3152 3152 3152 3153 3153 3153 3154 3154 3154 3155 3155 3155 3155 3155 3155 3155 3155 3155 3155 3156 3156 3156 3156 3156 3155 3154 3154 3155 3155 3156 3156 3156 3157 3157 3157 3158 3158 3158 3159 3159 3159 3159 3160 3160 3160 3160 3160 3160 3160 3160 3159 3159 3159 3158 3157 3157 3156 3156 3155 3154 3154 3153 3153 3152 3151 3150 3150 3149 3148 3147 3146 3145 3145 3144 3143 3142 3141 3140 3140 3139 3138 3137 3137 3136 3135
3148 3148 3148 3148 3149 3149 3149 3150 3150 3150 3151 3151 3151 3151 3151 3151 3151 3151 3151 3152 3152 3152 3153 3153 3153 3152 3151 3151 3151 3152 3152 3152 3152 3152 3152 3153 3153 3154 3154 3154 3154 3154 3154 3154 3155 3155 3155 3155 3154 3154 3154 3154 3153 3153 3152 3151 3151 3150 3150 3149 3149 3148 3147 3146 3145 3145 3144 3143 3142 3141 3140 3139 3138 3137 3136 3136 3135 3134 3133 3132 3131 3131 3130 3130 3129
3144 3144 3144 3144 3144 3145 3145 3145 3145 3146 3146 3146 3146 3147 3147 3147 3147 3147 3147 3148 3148 3148 3148 3149 3149 3149 3148 3148 3148 3148 3148 3148 3148 3148 3148 3148 3148 3148 3149 3149 3149 3149 3149 3149 3149 3149 3149 3149 3149 3149 3149 3148 3148 3147 3147 3146 3145 3145 3144 3144 3143 3143 3142 3141 3140 3139 3138 3137 3136 3135 3134 3133 3132 3131 3130 3129 3128 3127 3126 3126 3125 3124 3123 3123 3122
3140 3140 3140 3140 3140 3140 3140 3140 3141 3141 3141 3141 3141 3142 3142 3142 3142 3142 3142 3143 3143 3143 3144 3144 3144 3144 3144 3144 3144 3144 3144 3144 3144 3144 3144 3143 3143 3143 3143 3143 3143 3144 3144 3144 3143 3144 3144 3144 3144 3143 3143 3143 3142 3142 3141 3140 3140 3139 3138 3138 3137 3136 3136 3135 3134 3133 3132 3131 3130 3129 3128 3127 3126 3124 3123 3122 3121 3120 3119 3118 3118 3117 3116 3115 3115
3136 3136 3136 3136 3136 3136 3136 3136 3136 3136 3136 3136 3137 3137 3137 3137 3137 3137 3137 3138 3138 3138 3138 3138 3138 3138 3139 3139 3140 3140 3140 3140 3140 3140 3140 3139 3139 3139 3138 3138 3138 3138 3138 3138 3137 3137 3137 3137 3137 3137 3137 3137 3136 3136 3135 3134 3134 3133 3132 3131 3130 3130 3129 3128 3127 3126 3125 3124 3123 3122 3121 3120 3119 3118 3117 3116 3114 3113 3112 3111 3110 3109 3108 3107 3106
3132 3132 3132 3132 3132 3132 3132 3132 3132 3132 3132 3132 3132 3132 3132 3132 3132 3132 3133 3133 3133 3133 3133 3133 3133 3133 3133 3134 3135 3135 3134 3134 3134 3135 3135 3135 3135 3134 3134 3133 3133 3133 3133 3132 3132 3131 3131 3131 3131 3131 3131 3130 3130 3129 3129 3128 3127 3126 3126 3125 3124 3123 3122 3121 3120 3119 3118 3117 3116 3115 3114 3113 3112 3111 3110 3109 3107 3106 3105 3103 3102 3102 3101 3100 3098
3127 3127 3127 3127 3127 3127 3127 3127 3128 3128 3128 3128 3128 3128 3128 3128 3128 3128 3128 3128 3128 3128 3128 3128 3128 3128 3128 3129 3129 3129 3129 3129 3129 3129 3129 3129 3129 3129 3129 3128 3128 3127 3127 3126 3126 3126 3125 3125 3124 3124 3124 3123 3123 3122 3122 3121 3120 3119 3118 3117 3117 3116 3114 3113 3112 3111 3110 3109 3108 3107 3106 3105 3104 3103 3102 3101 3100 3098 3097 3096 3095 3094 3092 3091 3090
3122 3122 3123 3123 3123 3123 3123 3123 3123 3123 3124 3124 3123 3123 3123 3123 3123 3123 3123 3123 3123 3123 3123 3123 3123 3123 3123 3123 3123 3123 3123 3123 3123 3123 3123 3123 3123 3123 3122 3122 3122 3121 3121 3120 3120 3120 3119 3118 3117 3117 3116 3116 3115 3115 3114 3113 3112 3112 3110 3109 3108 3107 3106 3105 3104 3102 3101 3101 3100 3099 3098 3097 3096 3095 3094 3093 3091 3090 3089 3088 3087 3085 3084 3083 3082
3118 3118 3118 3118 3118 3119 3119 3119 3119 3119 3119 3119 3119 3119 3119 3118 3118 3118 3118 3118 3118 3118 3118 3118 3118 3118 3118 3118 3118 3117 3117 3117 3117 3117 3117 3116 3116 3116 3116 3115 3115 3115 3115 3114 3114 3113 3113 3112 3111 3110 3110 3109 3108 3107 3106 3105 3105 3104 3102 3101 3100 3098 3097 3095 3094 3093 3092 3091 3091 3090 3089 3088 3087 3086 3085 3084 3083 3081 3080 3079 3078 3076 3075 3074 3073
3113 3113 3114 3114 3114 3114 3114 3114 3114 3115 3115 3114 3114 3114 3114 3114 3114 3113 3113 3113 3113 3113 3113 3113 3113 3113 3112 3112 3112 3112 3111 3111 3111 3111 3111 3110 3110 3109 3109 3109 3109 3108 3108 3108 3107 3107 3106 3105 3105 3104 3103 3102 3101 3100 3099 3098 3097 3096 3095 3093 3092 3090 3088 3087 3085 3084 3083 3081 3080 3080 3080 3079 3078 3077 3076 3075 3074 3072 3071 3070 3069 3067 3066 3065 3064
3108 3109 3109 3109 3109 3109 3109 3109 3109 3109 3109 3109 3109 3109 3109 3109 3109 3109 3109 3108 3108 3108 3108 3108 3108 3107 3107 3107 3107 3106 3106 3106 3105 3105 3105 3104 3104 3103 3103 3102 3102 3102 3101 3101 3100 3100 3099 3099 3098 3097 3097 3096 3095 3094 3093 3092 3091 3089 3088 3086 3085 3083 3081 3079 3078 3076 3074 3072 3071 3070 3069 3068 3068 3068 3067 3065 3064 3062 3062 3061 3060 3059 3058 3056 3055
3104 3104 3104 3104 3104 3104 3104 3104 3104 3104 3104 3104 3104 3104 3104 3103 3103 3103 3103 3103 3103 3103 3102 3102 3102 3102 3102 3101 3101 3101 3100 3100 3100 3099 3099 3099 3098 3098 3097 3097 3096 3095 3095 3095 3094 3093 3093 3092 3092 3091 3090 3089 3088 3087 3086 3085 3084 3083 3081 3080 3078 3077 3075 3073 3071 3070 3067 3066 3064 3062 3060 3059 3058 3057 3056 3056 3055 3053 3052 3051 3050 3049 3048 3047 3046
3099 3099 3099 3099 3099 3099 3098 3098 3098 3098 3098 3098 3098 3098 3098 3098 3098 3097 3097 3097 3097 3097 3097 3097 3097 3096 3096 3096 3095 3095 3095 3094 3094 3094 3093 3093 3092 3092 3092 3091 3090 3090 3089 3089 3088 3088 3087 3086 3085 3085 3084 3083 3082 3081 3080 3079 3077 3076 3075 3073 3071 3070 3068 3066 3065 3063 3061 3059 3057 3055 3053 3051 3049 3047 3046 3046 3045 3044 3043 3042 3040 3039 3038 3037 3037
3094 3094 3094 3094 3094 3094 3094 3093 3093 3093 3093 3093 3092 3092 3092 3092 3092 3092 3092 3092 3092 3091 3091 3091 3091 3091 3090 3090 3090 3089 3089 3088 3088 3088 3087 3087 3087 3086 3086 3086 3085 3085 3084 3084 3083 3082 3081 3080 3080 3079 3078 3077 3076 3075 3074 3072 3071 3069 3067 3066 3064 3062 3060 3059 3057 3055 3052 3051 3050 3048 3045 3043 3041 3040 3038 3037 3035 3034 3033 3032 3031 3030 3029 3028 3027
3090 3090 3090 3089 3089 3089 3089 3089 3088 3088 3088 3088 3087 3087 3087 3087 3087 3087 3087 3086 3086 3086 3086 3086 3085 3085 3085 3084 3084 3084 3083 3083 3083 3082 3082 3082 3081 3081 3081 3080 3080 3079 3079 3078 3077 3077 3076 3075 3074 3073 3072 3070 3069 3068 3067 3065 3064 3062 3060 3058 3056 3054 3052 3050 3048 3046 3044 3042 3040 3039 3037 3034 3033 3032 3030 3029 3027 3025 3024 3023 3022 3021 3020 3019 3018